ONEWEB-0083, 45435

Orbit data source: Space-Track

ONEWEB-0083, 45435 is a payload satellite owned by One Web (UK) in LEO that was launched on Sat, 21 Mar 2020 UTC via a SOYUZ-2-1B launch vehicle from the Tyuratam Missile And Space Complex (TTMTR). Payload-class satellites include a variety of spacecraft equipped with specific instruments for various scientific and technological missions. These include communications satellites like Starlink; space stations such as the ISS; scientific satellites like the Hubble; Earth observation satellites from companies like Planet Labs, Umbra, and HawkEye 360; GPS; miniature CubeSats for education and research; and military/defense satellites.

Loading next visibility...
Identifier
45435, 2020-020M
Orbit
LEO
Country
Flag of UKUK
Related business
Manufacturer
One Web
Mission
Operational Commercial Communications
Bus & Motor
ARROW, Unknown motor
Mass
148 kg wet, ~140 kg dry
Launch date (UTC)
2020-03-21 (6 years ago)
Launch vehicle
SOYUZ-2-1B
Launch site
Tyuratam Missile And Space Complex (TTMTR)
Object type
Payload
Rocket body
Debris
Shape & HBR
Trap Box + 2 Pan, 6.7 m
Radar Cross Section
3.464 m², Large (>1 m²)

Expand to show TLE details & history
Last TLE update: 15 hours ago

TLE from 15 hours ago
0 ONEWEB-0083
1 45435U 20020M   26254.57581714 -.00000289  00000-0 -85131-3 0  9994
2 45435  87.8976   3.8881 0001814  98.2355 261.8979 13.11417685313996
Epoch: 2026-09-11T13:49Z
TLE epoch observation values (Epoch: 2026-09-11T13:49:10.600Z)
Latitude
-0.00002°
Longitude
165.99674°
Altitude
1,220.764 km
Speed
7.244 km/s
True Right ascension
00h 15m 33s
True Declination
0° 00' 00"
Sunlit
Object was in full shadow at epoch
Visualization orbit readout
Latitude
Unknown
Longitude
Unknown
Altitude
Unknown
Speed
Unknown
Apparent Right ascension
Unknown
Apparent Declination
Unknown
Sunlit
N/A
Visualization observer readout
Local Sidereal Time
21:38:08
Azimuth
Unknown
Elevation
Unknown
Doppler factor
Unknown
Orbital elements
Apogee altitude
1,216.175 km
Perigee altitude
1,213.421 km
Semi-major axis
7,592.935 km
Eccentricity
0.00018
Inclination
87.8976°
RAAN
3.8881°
Arg. of periapsis
98.2355°
True anomaly
261.87732°
Mean anomaly
261.8979°
Eccentric anomaly
261.88761°
Mean motion
3.28041 °/min
Orbital period
109.74 mins
BSTAR
-0.00085131
Loading maneuver chart data...
Computing Atmospheric mass density...
Loading historical data...
Loading historical data...
Loading historical data...
Loading historical data...
Loading historical data...
Loading historical data...
Loading historical data...

Documentation

Showing up to 5 results
|